| time (UTC) | temp F | wind direction | speed MPH | gust MPH | rain 1hr in | rain 24hr in | rain mn in | humidity % | barometer mb |
| 20260507095556 | 48 | 22 | 0.0 | 0.0 | 0.00 | 0.18 | 0.18 | 99 | 1010.8 |
| 20260507095052 | 48 | 25 | 0.0 | 0.0 | 0.00 | 0.18 | 0.18 | 99 | 1010.9 |
| 20260507094548 | 48 | 6 | 0.0 | 0.0 | 0.07 | 0.18 | 0.18 | 99 | 1010.9 |
| 20260507094046 | 48 | 292 | 1.0 | 1.0 | 0.07 | 0.18 | 0.18 | 99 | 1010.6 |
| 20260507093543 | 48 | 14 | 0.0 | 0.0 | 0.00 | 0.17 | 0.17 | 99 | 1010.1 |
| 20260507093042 | 48 | 19 | 0.0 | 0.0 | 0.05 | 0.17 | 0.17 | 99 | 1010.3 |
| 20260507092537 | 48 | 9 | 0.0 | 0.0 | 0.07 | 0.16 | 0.16 | 99 | 1010.7 |
| 20260507092035 | 48 | 353 | 0.0 | 2.0 | 0.07 | 0.16 | 0.16 | 99 | 1010.5 |
| 20260507091531 | 48 | 0 | 0.0 | 0.0 | 0.00 | 0.15 | 0.15 | 99 | 1010.5 |
| 20260507091027 | 48 | 13 | 0.0 | 0.0 | 0.00 | 0.15 | 0.15 | 99 | 1010.4 |
| 20260507090523 | 49 | 10 | 0.0 | 0.0 | 0.00 | 0.15 | 0.15 | 99 | 1010.2 |
| 20260507090020 | 49 | 315 | 0.0 | 0.0 | 0.05 | 0.15 | 0.15 | 99 | 1010.4 |
| 20260507085518 | 49 | 20 | 0.0 | 0.0 | 0.12 | 0.15 | 0.15 | 99 | 1010.4 |
| 20260507085014 | 49 | 23 | 0.0 | 1.0 | 0.12 | 0.14 | 0.14 | 99 | 1010.4 |
| 20260507084511 | 49 | 13 | 0.0 | 1.0 | 0.05 | 0.13 | 0.13 | 99 | 1010.4 |
| 20260507084008 | 49 | 9 | 0.0 | 1.0 | 0.07 | 0.12 | 0.12 | 99 | 1010.5 |
| 20260507083504 | 49 | 7 | 0.0 | 0.0 | 0.14 | 0.12 | 0.12 | 99 | 1010.6 |
| 20260507083001 | 49 | 19 | 0.0 | 0.0 | 0.12 | 0.11 | 0.11 | 98 | 1010.4 |
| 20260507082457 | 50 | 8 | 0.0 | 0.0 | 0.12 | 0.10 | 0.10 | 98 | 1010.2 |
| 20260507081953 | 50 | 6 | 0.0 | 0.0 | 0.12 | 0.09 | 0.09 | 98 | 1010.5 |
| 20260507081449 | 50 | 5 | 0.0 | 0.0 | 0.05 | 0.08 | 0.08 | 97 | 1010.2 |
| 20260507080947 | 50 | 8 | 0.0 | 0.0 | 0.07 | 0.07 | 0.07 | 97 | 1010.2 |
| 20260507080442 | 50 | 25 | 0.0 | 0.0 | 0.07 | 0.07 | 0.07 | 97 | 1010.4 |
| 20260507075938 | 50 | 18 | 0.0 | 0.0 | 0.05 | 0.06 | 0.06 | 97 | 1010.5 |
| 20260507075435 | 50 | 7 | 0.0 | 1.0 | 0.05 | 0.06 | 0.06 | 96 | 1011.0 |
| 20260507074931 | 51 | 9 | 0.0 | 1.0 | 0.00 | 0.05 | 0.05 | 96 | 1010.7 |
| 20260507074428 | 51 | 26 | 1.0 | 2.0 | 0.07 | 0.05 | 0.05 | 95 | 1010.4 |
| 20260507073926 | 51 | 346 | 1.0 | 1.0 | 0.12 | 0.05 | 0.05 | 94 | 1010.5 |
| 20260507073422 | 52 | 4 | 0.0 | 2.0 | 0.12 | 0.04 | 0.04 | 93 | 1010.3 |
| 20260507072919 | 52 | 238 | 2.0 | 3.0 | 0.12 | 0.03 | 0.03 | 91 | 1010.5 |
| 20260507072417 | 53 | 249 | 3.0 | 3.0 | 0.05 | 0.02 | 0.02 | 90 | 1010.1 |
| 20260507071914 | 53 | 356 | 0.0 | 2.0 | 0.00 | 0.01 | 0.01 | 89 | 1009.8 |
| 20260507071411 | 53 | 7 | 1.0 | 1.0 | 0.00 | 0.01 | 0.01 | 89 | 1009.5 |
| 20260507070907 | 54 | 8 | 0.0 | 1.0 | 0.00 | 0.01 | 0.01 | 88 | 1009.4 |
| 20260507070405 | 53 | 346 | 1.0 | 1.0 | 0.00 | 0.01 | 0.01 | 87 | 1009.0 |
| 20260507065901 | 54 | 4 | 1.0 | 1.0 | 0.00 | 0.01 | 0.01 | 86 | 1009.2 |
| 20260507065358 | 54 | 347 | 2.0 | 3.0 | 0.00 | 0.01 | 0.01 | 87 | 1009.3 |
| 20260507064855 | 54 | 2 | 1.0 | 2.0 | 0.00 | 0.01 | 0.01 | 87 | 1009.6 |
| 20260507064353 | 54 | 336 | 1.0 | 2.0 | 0.00 | 0.01 | 0.01 | 88 | 1009.6 |
| 20260507063851 | 54 | 352 | 1.0 | 2.0 | 0.00 | 0.01 | 0.01 | 89 | 1009.3 |
| 20260507063348 | 54 | 13 | 0.0 | 3.0 | 0.00 | 0.01 | 0.01 | 92 | 1009.5 |
| 20260507062845 | 55 | 10 | 0.0 | 1.0 | 0.00 | 0.01 | 0.01 | 96 | 1009.5 |
| 20260507062341 | 56 | 21 | 1.0 | 2.0 | 0.00 | 0.01 | 0.01 | 96 | 1009.4 |
| 20260507061839 | 56 | 17 | 1.0 | 1.0 | 0.00 | 0.01 | 0.01 | 96 | 1009.3 |
| 20260507061337 | 56 | 11 | 0.0 | 0.0 | 0.00 | 0.01 | 0.01 | 96 | 1009.3 |
| 20260507060835 | 56 | 18 | 0.0 | 1.0 | 0.00 | 0.01 | 0.01 | 96 | 1009.4 |
| 20260507060332 | 56 | 330 | 1.0 | 1.0 | 0.00 | 0.01 | 0.01 | 96 | 1009.4 |
| 20260507055829 | 56 | 58 | 0.0 | 2.0 | 0.00 | 0.01 | 0.01 | 96 | 1009.5 |
| 20260507055324 | 56 | 0 | 0.0 | 1.0 | 0.00 | 0.01 | 0.01 | 96 | 1009.7 |
| 20260507054821 | 56 | 359 | 1.0 | 1.0 | 0.00 | 0.01 | 0.01 | 95 | 1009.8 |
| 20260507054316 | 57 | 322 | 1.0 | 3.0 | 0.00 | 0.01 | 0.01 | 95 | 1009.7 |
| 20260507053814 | 57 | 264 | 2.0 | 3.0 | 0.00 | 0.01 | 0.01 | 95 | 1009.8 |
| 20260507053312 | 57 | 3 | 0.0 | 3.0 | 0.00 | 0.01 | 0.01 | 95 | 1009.9 |
| 20260507052811 | 57 | 12 | 0.0 | 0.0 | 0.00 | 0.01 | 0.01 | 95 | 1010.1 |
| 20260507052307 | 57 | 239 | 5.0 | 7.0 | 0.00 | 0.01 | 0.01 | 94 | 1010.1 |
| 20260507051805 | 57 | 315 | 3.0 | 5.0 | 0.00 | 0.01 | 0.01 | 95 | 1009.9 |
| 20260507051302 | 57 | 9 | 0.0 | 2.0 | 0.00 | 0.01 | 0.01 | 95 | 1009.8 |
| 20260507050758 | 57 | 323 | 3.0 | 6.0 | 0.00 | 0.01 | 0.01 | 96 | 1009.8 |
| 20260507050255 | 57 | 342 | 2.0 | 3.0 | 0.00 | 0.01 | 0.01 | 97 | 1009.4 |
| 20260507045752 | 57 | 300 | 2.0 | 7.0 | 0.00 | 0.01 | 0.01 | 98 | 1009.7 |
| 20260507045248 | 58 | 237 | 1.0 | 6.0 | 0.00 | 0.01 | 0.01 | 99 | 1009.9 |
| 20260507044746 | 58 | 11 | 0.0 | 0.0 | 0.00 | 0.01 | 0.01 | 99 | 1009.7 |
| 20260507044241 | 59 | 294 | 3.0 | 3.0 | 0.00 | 0.01 | 0.01 | 99 | 1009.7 |
| 20260507043738 | 59 | 346 | 0.0 | 2.0 | 0.00 | 0.01 | 0.01 | 99 | 1009.7 |
| 20260507043235 | 59 | 355 | 1.0 | 5.0 | 0.00 | 0.01 | 0.01 | 99 | 1009.6 |
| 20260507042731 | 59 | 340 | 1.0 | 2.0 | 0.00 | 0.01 | 0.01 | 99 | 1009.7 |
| 20260507042226 | 59 | 287 | 3.0 | 3.0 | 0.00 | 0.01 | 0.01 | 99 | 1009.6 |
| 20260507041724 | 59 | 261 | 2.0 | 3.0 | 0.00 | 0.01 | 0.01 | 99 | 1009.5 |
| 20260507041220 | 59 | 21 | 0.0 | 3.0 | 0.00 | 0.01 | 0.01 | 99 | 1009.6 |
| 20260507040718 | 59 | 264 | 1.0 | 2.0 | 0.07 | 0.01 | 0.01 | 99 | 1009.7 |
| 20260507040213 | 59 | 347 | 1.0 | 1.0 | 0.07 | 0.01 | 0.01 | 99 | 1009.6 |
| 20260507035710 | 59 | 4 | 0.0 | 3.0 | 0.00 | 0.07 | 0.07 | 99 | 1009.7 |
| 20260507035205 | 59 | 276 | 4.0 | 5.0 | 0.00 | 0.07 | 0.07 | 98 | 1009.6 |
| 20260507034702 | 59 | 278 | 1.0 | 2.0 | 0.00 | 0.07 | 0.07 | 98 | 1009.8 |
| 20260507034200 | 59 | 278 | 5.0 | 8.0 | 0.00 | 0.07 | 0.07 | 98 | 1009.9 |
| 20260507033658 | 60 | 304 | 4.0 | 6.0 | 0.00 | 0.07 | 0.07 | 97 | 1009.8 |
| 20260507033155 | 60 | 340 | 2.0 | 3.0 | 0.00 | 0.07 | 0.07 | 97 | 1009.7 |
| 20260507032653 | 59 | 318 | 4.0 | 6.0 | 0.00 | 0.07 | 0.07 | 97 | 1009.5 |
| 20260507032148 | 60 | 245 | 3.0 | 3.0 | 0.00 | 0.07 | 0.07 | 97 | 1009.5 |
| 20260507031645 | 59 | 313 | 7.0 | 8.0 | 0.00 | 0.07 | 0.07 | 97 | 1009.5 |
| 20260507031142 | 59 | 281 | 2.0 | 6.0 | 0.00 | 0.07 | 0.07 | 98 | 1009.5 |
| 20260507030638 | 59 | 246 | 6.0 | 7.0 | 0.00 | 0.07 | 0.07 | 98 | 1009.5 |
| 20260507030137 | 59 | 279 | 2.0 | 6.0 | 0.00 | 0.07 | 0.07 | 98 | 1009.2 |
| 20260507025633 | 59 | 350 | 1.0 | 6.0 | 0.00 | 0.07 | 0.07 | 98 | 1009.2 |
| 20260507025130 | 59 | 274 | 4.0 | 7.0 | 0.00 | 0.07 | 0.07 | 98 | 1009.4 |
| 20260507024628 | 59 | 294 | 1.0 | 6.0 | 0.00 | 0.07 | 0.07 | 98 | 1009.4 |
| 20260507024125 | 59 | 306 | 4.0 | 6.0 | 0.00 | 0.07 | 0.07 | 98 | 1009.3 |
| 20260507023621 | 59 | 205 | 7.0 | 11.0 | 0.00 | 0.07 | 0.07 | 98 | 1009.3 |
| 20260507023119 | 59 | 342 | 1.0 | 5.0 | 0.00 | 0.07 | 0.07 | 98 | 1009.2 |
| 20260507022615 | 59 | 325 | 1.0 | 5.0 | 0.00 | 0.07 | 0.07 | 98 | 1009.3 |
| 20260507022110 | 59 | 245 | 4.0 | 5.0 | 0.00 | 0.07 | 0.07 | 98 | 1009.5 |
| 20260507021607 | 59 | 307 | 2.0 | 5.0 | 0.00 | 0.07 | 0.07 | 98 | 1009.3 |
| 20260507021103 | 59 | 237 | 5.0 | 7.0 | 0.00 | 0.07 | 0.07 | 98 | 1009.4 |
| 20260507020602 | 59 | 279 | 1.0 | 7.0 | 0.00 | 0.07 | 0.07 | 98 | 1009.3 |
| 20260507020057 | 59 | 319 | 3.0 | 7.0 | 0.00 | 0.07 | 0.07 | 99 | 1009.4 |
| 20260507015556 | 59 | 284 | 3.0 | 9.0 | 0.00 | 0.07 | 0.07 | 99 | 1009.4 |
| 20260507015053 | 59 | 103 | 2.0 | 3.0 | 0.00 | 0.07 | 0.07 | 99 | 1009.3 |
| 20260507014549 | 59 | 278 | 0.0 | 6.0 | 0.00 | 0.07 | 0.07 | 99 | 1009.3 |
| 20260507014045 | 59 | 274 | 5.0 | 7.0 | 0.00 | 0.07 | 0.07 | 99 | 1009.3 |
| 20260507013542 | 58 | 267 | 1.0 | 6.0 | 0.00 | 0.07 | 0.07 | 99 | 1009.4 |
| 20260507013039 | 58 | 122 | 1.0 | 10.0 | 0.00 | 0.07 | 0.07 | 99 | 1009.3 |
| 20260507012536 | 58 | 300 | 2.0 | 7.0 | 0.00 | 0.07 | 0.07 | 99 | 1009.7 |
| 20260507012032 | 58 | 271 | 3.0 | 7.0 | 0.00 | 0.07 | 0.07 | 99 | 1009.7 |
| 20260507011530 | 58 | 292 | 3.0 | 8.0 | 0.00 | 0.07 | 0.07 | 99 | 1009.8 |
| 20260507011026 | 58 | 305 | 2.0 | 7.0 | 0.00 | 0.07 | 0.07 | 99 | 1009.7 |
| 20260507010520 | 58 | 251 | 3.0 | 9.0 | 0.00 | 0.07 | 0.07 | 99 | 1009.6 |
| 20260507010017 | 58 | 287 | 4.0 | 5.0 | 0.00 | 0.07 | 0.07 | 99 | 1009.8 |
| 20260507005515 | 58 | 288 | 4.0 | 10.0 | 0.00 | 0.07 | 0.07 | 99 | 1009.8 |
| 20260507005011 | 58 | 317 | 2.0 | 2.0 | 0.00 | 0.07 | 0.07 | 99 | 1009.8 |
| 20260507004508 | 58 | 303 | 0.0 | 5.0 | 0.00 | 0.07 | 0.07 | 99 | 1009.9 |
| 20260507004006 | 58 | 250 | 3.0 | 7.0 | 0.00 | 0.07 | 0.07 | 99 | 1009.7 |
| 20260507003501 | 58 | 272 | 0.0 | 5.0 | 0.00 | 0.07 | 0.07 | 99 | 1009.8 |
| 20260507002955 | 58 | 306 | 4.0 | 9.0 | 0.00 | 0.07 | 0.07 | 99 | 1009.8 |
| 20260507002453 | 58 | 342 | 2.0 | 6.0 | 0.00 | 0.07 | 0.07 | 99 | 1009.8 |
| 20260507001949 | 58 | 247 | 3.0 | 11.0 | 0.00 | 0.07 | 0.07 | 99 | 1009.6 |
| 20260507001446 | 58 | 354 | 0.0 | 6.0 | 0.00 | 0.07 | 0.07 | 99 | 1009.5 |
| 20260507000944 | 58 | 213 | 4.0 | 8.0 | 0.00 | 0.07 | 0.07 | 99 | 1009.6 |
| 20260507000439 | 58 | 292 | 7.0 | 9.0 | 0.00 | 0.07 | 0.07 | 99 | 1009.7 |
| 20260506235934 | 58 | 272 | 4.0 | 7.0 | 0.00 | 0.07 | 0.07 | 99 | 1009.7 |
| 20260506235432 | 58 | 237 | 4.0 | 8.0 | 0.00 | 0.07 | 0.07 | 99 | 1009.5 |
| 20260506234927 | 58 | 318 | 2.0 | 5.0 | 0.00 | 0.07 | 0.07 | 99 | 1009.4 |
| 20260506234426 | 58 | 238 | 2.0 | 3.0 | 0.00 | 0.07 | 0.07 | 99 | 1009.6 |
| 20260506233923 | 58 | 2 | 2.0 | 3.0 | 0.05 | 0.07 | 0.07 | 99 | 1009.2 |
| 20260506233419 | 58 | 350 | 2.0 | 3.0 | 0.05 | 0.07 | 0.07 | 99 | 1009.5 |
| 20260506232916 | 58 | 221 | 7.0 | 9.0 | 0.00 | 0.06 | 0.06 | 99 | 1009.2 |
| 20260506232412 | 58 | 312 | 2.0 | 3.0 | 0.00 | 0.06 | 0.06 | 99 | 1009.3 |
| 20260506231908 | 58 | 271 | 3.0 | 7.0 | 0.00 | 0.06 | 0.06 | 98 | 1009.3 |
| 20260506231406 | 58 | 310 | 5.0 | 6.0 | 0.00 | 0.06 | 0.06 | 98 | 1009.3 |
| 20260506230903 | 59 | 229 | 4.0 | 9.0 | 0.00 | 0.06 | 0.06 | 97 | 1009.4 |
| 20260506230400 | 59 | 327 | 2.0 | 6.0 | 0.00 | 0.06 | 0.06 | 97 | 1009.4 |
| 20260506225856 | 59 | 243 | 4.0 | 7.0 | 0.00 | 0.06 | 0.06 | 96 | 1009.3 |
| 20260506225353 | 59 | 335 | 4.0 | 7.0 | 0.00 | 0.06 | 0.06 | 96 | 1009.6 |
| 20260506224850 | 59 | 242 | 5.0 | 7.0 | 0.00 | 0.06 | 0.06 | 96 | 1009.5 |
| 20260506224348 | 59 | 207 | 4.0 | 6.0 | 0.00 | 0.06 | 0.06 | 96 | 1009.5 |
| 20260506223844 | 59 | 257 | 6.0 | 8.0 | 0.00 | 0.06 | 0.06 | 97 | 1009.2 |
| 20260506223339 | 59 | 253 | 3.0 | 5.0 | 0.00 | 0.06 | 0.06 | 97 | 1009.3 |
| 20260506222836 | 59 | 194 | 2.0 | 3.0 | 0.00 | 0.06 | 0.06 | 97 | 1009.3 |
| 20260506222332 | 59 | 286 | 3.0 | 8.0 | 0.00 | 0.06 | 0.06 | 97 | 1009.3 |
| 20260506221830 | 59 | 178 | 3.0 | 7.0 | 0.00 | 0.06 | 0.06 | 98 | 1009.5 |
| 20260506221327 | 59 | 268 | 5.0 | 10.0 | 0.00 | 0.06 | 0.06 | 99 | 1009.4 |
| 20260506220825 | 59 | 233 | 5.0 | 7.0 | 0.00 | 0.06 | 0.06 | 99 | 1009.6 |
| 20260506220320 | 59 | 292 | 2.0 | 9.0 | 0.00 | 0.06 | 0.06 | 99 | 1009.9 |
| 20260506215817 | 59 | 276 | 4.0 | 6.0 | 0.07 | 0.06 | 0.06 | 99 | 1009.9 |
| 20260506215313 | 59 | 207 | 5.0 | 7.0 | 0.07 | 0.06 | 0.06 | 98 | 1009.7 |
| 20260506214809 | 59 | 248 | 6.0 | 7.0 | 0.00 | 0.05 | 0.05 | 98 | 1009.8 |
| 20260506214305 | 59 | 176 | 1.0 | 2.0 | 0.00 | 0.05 | 0.05 | 98 | 1009.6 |
| 20260506213804 | 59 | 236 | 6.0 | 8.0 | 0.00 | 0.05 | 0.05 | 97 | 1009.8 |
| 20260506213300 | 59 | 251 | 4.0 | 6.0 | 0.00 | 0.05 | 0.05 | 97 | 1009.8 |
| 20260506212758 | 59 | 246 | 9.0 | 14.0 | 0.00 | 0.05 | 0.05 | 96 | 1010.1 |
| 20260506212254 | 60 | 256 | 4.0 | 7.0 | 0.00 | 0.05 | 0.05 | 96 | 1010.1 |
| 20260506211749 | 59 | 301 | 5.0 | 8.0 | 0.00 | 0.05 | 0.05 | 96 | 1009.9 |
| 20260506211245 | 59 | 298 | 2.0 | 6.0 | 0.00 | 0.05 | 0.05 | 97 | 1010.1 |
| 20260506210743 | 59 | 239 | 5.0 | 7.0 | 0.00 | 0.05 | 0.05 | 97 | 1010.2 |
| 20260506210239 | 59 | 183 | 5.0 | 9.0 | 0.07 | 0.05 | 0.05 | 97 | 1010.1 |
| 20260506205736 | 59 | 214 | 4.0 | 10.0 | 0.07 | 0.05 | 0.05 | 97 | 1010.3 |
| 20260506205232 | 60 | 211 | 2.0 | 9.0 | 0.05 | 0.04 | 0.04 | 96 | 1010.3 |
| 20260506204729 | 60 | 238 | 5.0 | 8.0 | 0.05 | 0.04 | 0.04 | 96 | 1010.3 |
| 20260506204226 | 60 | 241 | 7.0 | 11.0 | 0.07 | 0.03 | 0.03 | 95 | 1010.3 |
| 20260506203724 | 60 | 315 | 5.0 | 9.0 | 0.07 | 0.03 | 0.03 | 94 | 1010.2 |
| 20260506203215 | 60 | 325 | 4.0 | 13.0 | 0.00 | 0.02 | 0.02 | 93 | 1010.3 |
| 20260506202713 | 60 | 273 | 2.0 | 13.0 | 0.00 | 0.02 | 0.02 | 93 | 1010.4 |
| 20260506202209 | 60 | 9 | 1.0 | 11.0 | 0.00 | 0.02 | 0.02 | 93 | 1010.6 |
| 20260506201706 | 60 | 303 | 4.0 | 9.0 | 0.00 | 0.02 | 0.02 | 93 | 1010.6 |
| 20260506201203 | 60 | 223 | 7.0 | 10.0 | 0.00 | 0.02 | 0.02 | 93 | 1010.5 |
| 20260506200659 | 61 | 219 | 7.0 | 8.0 | 0.00 | 0.02 | 0.02 | 93 | 1010.4 |
| 20260506200156 | 61 | 270 | 3.0 | 6.0 | 0.00 | 0.02 | 0.02 | 93 | 1010.3 |
| 20260506195653 | 61 | 293 | 3.0 | 10.0 | 0.05 | 0.02 | 0.02 | 92 | 1010.4 |
| 20260506195149 | 61 | 247 | 3.0 | 6.0 | 0.00 | 0.01 | 0.01 | 91 | 1010.3 |
| 20260506194647 | 61 | 271 | 2.0 | 3.0 | 0.00 | 0.01 | 0.01 | 91 | 1010.3 |
| 20260506194143 | 62 | 295 | 4.0 | 9.0 | 0.00 | 0.01 | 0.01 | 89 | 1010.1 |
| 20260506193641 | 62 | 307 | 3.0 | 11.0 | 0.00 | 0.01 | 0.01 | 87 | 1010.3 |
| 20260506193138 | 62 | 278 | 7.0 | 14.0 | 0.07 | 0.01 | 0.01 | 86 | 1010.6 |
| 20260506192634 | 63 | 230 | 4.0 | 8.0 | 0.07 | 0.01 | 0.01 | 85 | 1010.6 |
| 20260506192130 | 63 | 297 | 5.0 | 8.0 | 0.00 | 0.00 | 0.00 | 84 | 1010.5 |
| 20260506191627 | 63 | 279 | 6.0 | 8.0 | 0.00 | 0.00 | 0.00 | 83 | 1010.5 |
| 20260506191123 | 63 | 160 | 2.0 | 10.0 | 0.00 | 0.00 | 0.00 | 83 | 1010.6 |
| 20260506190621 | 64 | 229 | 7.0 | 10.0 | 0.00 | 0.00 | 0.00 | 81 | 1010.6 |
| 20260506190118 | 64 | 269 | 5.0 | 14.0 | 0.00 | 0.00 | 0.00 | 79 | 1010.6 |
| 20260506185615 | 65 | 283 | 9.0 | 14.0 | 0.00 | 0.00 | 0.00 | 77 | 1010.7 |
| 20260506185111 | 66 | 255 | 6.0 | 13.0 | 0.00 | 0.00 | 0.00 | 75 | 1010.8 |
| 20260506184609 | 67 | 229 | 5.0 | 6.0 | 0.00 | 0.00 | 0.00 | 73 | 1010.7 |
| 20260506184106 | 67 | 262 | 5.0 | 8.0 | 0.00 | 0.00 | 0.00 | 72 | 1010.4 |
| 20260506183602 | 67 | 140 | 7.0 | 10.0 | 0.00 | 0.00 | 0.00 | 70 | 1010.6 |
| 20260506183058 | 68 | 214 | 5.0 | 13.0 | 0.00 | 0.00 | 0.00 | 70 | 1010.9 |
| 20260506182556 | 68 | 225 | 6.0 | 9.0 | 0.00 | 0.00 | 0.00 | 69 | 1010.9 |
| 20260506182053 | 68 | 195 | 6.0 | 11.0 | 0.00 | 0.00 | 0.00 | 68 | 1010.8 |
| 20260506181551 | 68 | 274 | 5.0 | 8.0 | 0.00 | 0.00 | 0.00 | 67 | 1010.8 |
| 20260506181047 | 69 | 259 | 8.0 | 13.0 | 0.00 | 0.00 | 0.00 | 66 | 1010.7 |
| 20260506180544 | 69 | 265 | 8.0 | 10.0 | 0.00 | 0.00 | 0.00 | 66 | 1010.8 |
| 20260506180040 | 69 | 222 | 10.0 | 14.0 | 0.00 | 0.00 | 0.00 | 65 | 1010.9 |
| 20260506175537 | 70 | 279 | 6.0 | 13.0 | 0.00 | 0.00 | 0.00 | 65 | 1010.9 |
| 20260506175033 | 70 | 255 | 4.0 | 7.0 | 0.00 | 0.00 | 0.00 | 65 | 1010.9 |
| 20260506174532 | 70 | 260 | 8.0 | 9.0 | 0.00 | 0.00 | 0.00 | 64 | 1010.8 |
| 20260506174028 | 70 | 298 | 6.0 | 11.0 | 0.00 | 0.00 | 0.00 | 64 | 1010.9 |
| 20260506173526 | 70 | 319 | 10.0 | 16.0 | 0.00 | 0.00 | 0.00 | 63 | 1011.2 |
| 20260506173022 | 70 | 196 | 8.0 | 22.0 | 0.00 | 0.00 | 0.00 | 63 | 1011.4 |
| 20260506172520 | 71 | 276 | 6.0 | 10.0 | 0.00 | 0.00 | 0.00 | 64 | 1011.2 |
| 20260506172016 | 71 | 233 | 3.0 | 11.0 | 0.00 | 0.00 | 0.00 | 61 | 1011.4 |
| 20260506171514 | 71 | 334 | 10.0 | 14.0 | 0.00 | 0.00 | 0.00 | 61 | 1011.2 |
| 20260506171011 | 71 | 279 | 6.0 | 13.0 | 0.00 | 0.00 | 0.00 | 61 | 1011.2 |
| 20260506170508 | 71 | 296 | 10.0 | 22.0 | 0.00 | 0.00 | 0.00 | 62 | 1011.2 |
| 20260506170006 | 71 | 229 | 3.0 | 15.0 | 0.00 | 0.00 | 0.00 | 62 | 1011.1 |
| 20260506165504 | 71 | 262 | 7.0 | 10.0 | 0.00 | 0.00 | 0.00 | 62 | 1011.0 |
| 20260506165000 | 72 | 279 | 8.0 | 20.0 | 0.00 | 0.00 | 0.00 | 61 | 1011.3 |
| 20260506164457 | 71 | 286 | 3.0 | 14.0 | 0.00 | 0.00 | 0.00 | 62 | 1011.5 |
| 20260506163954 | 71 | 228 | 8.0 | 18.0 | 0.00 | 0.00 | 0.00 | 62 | 1011.6 |
| 20260506163449 | 71 | 233 | 7.0 | 22.0 | 0.00 | 0.00 | 0.00 | 62 | 1011.8 |
| 20260506162944 | 71 | 260 | 7.0 | 13.0 | 0.00 | 0.00 | 0.00 | 63 | 1011.8 |
| 20260506162442 | 71 | 212 | 13.0 | 15.0 | 0.00 | 0.00 | 0.00 | 62 | 1011.9 |
| 20260506161934 | 71 | 231 | 5.0 | 15.0 | 0.00 | 0.00 | 0.00 | 62 | 1011.7 |
| 20260506161432 | 71 | 276 | 4.0 | 9.0 | 0.00 | 0.00 | 0.00 | 62 | 1011.9 |
| 20260506160929 | 71 | 258 | 8.0 | 14.0 | 0.00 | 0.00 | 0.00 | 62 | 1011.7 |
| 20260506160426 | 71 | 250 | 7.0 | 10.0 | 0.00 | 0.00 | 0.00 | 62 | 1011.8 |
| 20260506155923 | 71 | 219 | 9.0 | 11.0 | 0.00 | 0.00 | 0.00 | 61 | 1011.9 |
| 20260506155420 | 71 | 260 | 5.0 | 14.0 | 0.00 | 0.00 | 0.00 | 62 | 1012.0 |
| 20260506153542 | 71 | 281 | 4.0 | 11.0 | 0.00 | 0.00 | 0.00 | 64 | 1012.4 |
| 20260506153040 | 71 | 247 | 6.0 | 17.0 | 0.00 | 0.00 | 0.00 | 63 | 1012.6 |
| 20260506152537 | 72 | 247 | 9.0 | 14.0 | 0.00 | 0.00 | 0.00 | 63 | 1012.4 |
| 20260506152035 | 71 | 13 | 3.0 | 11.0 | 0.00 | 0.00 | 0.00 | 63 | 1012.7 |
| 20260506151532 | 70 | 238 | 4.0 | 8.0 | 0.00 | 0.00 | 0.00 | 65 | 1012.5 |
| 20260506151024 | 70 | 252 | 8.0 | 15.0 | 0.00 | 0.00 | 0.00 | 65 | 1012.7 |
| 20260506150520 | 70 | 187 | 2.0 | 11.0 | 0.00 | 0.00 | 0.00 | 65 | 1012.6 |
| 20260506150017 | 70 | 287 | 4.0 | 11.0 | 0.00 | 0.00 | 0.00 | 65 | 1012.6 |
| 20260506145514 | 70 | 246 | 8.0 | 11.0 | 0.00 | 0.00 | 0.00 | 66 | 1012.7 |
| 20260506145011 | 69 | 288 | 4.0 | 13.0 | 0.00 | 0.00 | 0.00 | 66 | 1012.7 |
| 20260506144507 | 70 | 237 | 14.0 | 17.0 | 0.00 | 0.00 | 0.00 | 65 | 1013.0 |
| 20260506144005 | 70 | 314 | 3.0 | 8.0 | 0.00 | 0.00 | 0.00 | 65 | 1012.4 |
| 20260506143502 | 70 | 260 | 6.0 | 21.0 | 0.00 | 0.00 | 0.00 | 66 | 1012.8 |
| 20260506143001 | 69 | 307 | 8.0 | 17.0 | 0.00 | 0.00 | 0.00 | 65 | 1012.7 |
| 20260506142458 | 69 | 276 | 6.0 | 17.0 | 0.00 | 0.00 | 0.00 | 65 | 1012.6 |
| 20260506141956 | 69 | 251 | 3.0 | 13.0 | 0.00 | 0.00 | 0.00 | 65 | 1012.3 |
| 20260506141454 | 70 | 254 | 5.0 | 15.0 | 0.00 | 0.00 | 0.00 | 65 | 1012.4 |
| 20260506140952 | 70 | 271 | 9.0 | 11.0 | 0.00 | 0.00 | 0.00 | 65 | 1012.4 |
| 20260506140449 | 70 | 30 | 1.0 | 10.0 | 0.00 | 0.00 | 0.00 | 66 | 1012.6 |
| 20260506135945 | 69 | 328 | 6.0 | 10.0 | 0.00 | 0.00 | 0.00 | 67 | 1012.5 |
| 20260506135443 | 69 | 205 | 2.0 | 10.0 | 0.00 | 0.00 | 0.00 | 68 | 1012.7 |
| 20260506134938 | 69 | 274 | 4.0 | 8.0 | 0.00 | 0.00 | 0.00 | 67 | 1012.5 |
| 20260506134435 | 69 | 232 | 2.0 | 9.0 | 0.00 | 0.00 | 0.00 | 67 | 1012.4 |
| 20260506133932 | 69 | 209 | 8.0 | 10.0 | 0.00 | 0.00 | 0.00 | 68 | 1012.4 |
| 20260506133429 | 69 | 215 | 6.0 | 18.0 | 0.00 | 0.00 | 0.00 | 68 | 1012.7 |
| 20260506132926 | 68 | 248 | 3.0 | 8.0 | 0.00 | 0.00 | 0.00 | 70 | 1012.8 |
| 20260506132423 | 68 | 239 | 3.0 | 5.0 | 0.00 | 0.00 | 0.00 | 71 | 1013.2 |
| 20260506131920 | 67 | 242 | 4.0 | 8.0 | 0.00 | 0.00 | 0.00 | 72 | 1013.2 |
| 20260506131416 | 67 | 193 | 3.0 | 11.0 | 0.00 | 0.00 | 0.00 | 73 | 1013.5 |
| 20260506130914 | 66 | 253 | 5.0 | 13.0 | 0.00 | 0.00 | 0.00 | 74 | 1013.2 |
| 20260506130410 | 66 | 227 | 2.0 | 11.0 | 0.00 | 0.00 | 0.00 | 75 | 1013.3 |
| 20260506125908 | 66 | 115 | 1.0 | 3.0 | 0.00 | 0.00 | 0.00 | 76 | 1013.0 |
| 20260506125406 | 66 | 245 | 6.0 | 7.0 | 0.00 | 0.00 | 0.00 | 75 | 1013.2 |
| 20260506124904 | 65 | 276 | 6.0 | 8.0 | 0.00 | 0.00 | 0.00 | 77 | 1013.1 |
| 20260506124401 | 64 | 257 | 6.0 | 9.0 | 0.00 | 0.00 | 0.00 | 78 | 1013.4 |
| 20260506123859 | 64 | 233 | 6.0 | 11.0 | 0.00 | 0.00 | 0.00 | 79 | 1013.1 |
| 20260506123357 | 64 | 239 | 3.0 | 3.0 | 0.00 | 0.00 | 0.00 | 79 | 1013.3 |
| 20260506122854 | 64 | 255 | 6.0 | 7.0 | 0.00 | 0.00 | 0.00 | 79 | 1013.2 |
| 20260506122350 | 63 | 288 | 8.0 | 10.0 | 0.00 | 0.00 | 0.00 | 80 | 1013.3 |
| 20260506121849 | 63 | 243 | 5.0 | 6.0 | 0.00 | 0.00 | 0.00 | 81 | 1013.0 |
| 20260506121346 | 62 | 212 | 7.0 | 9.0 | 0.00 | 0.00 | 0.00 | 82 | 1013.2 |
| 20260506120842 | 62 | 307 | 3.0 | 6.0 | 0.00 | 0.00 | 0.00 | 83 | 1013.1 |
| 20260506120340 | 62 | 183 | 2.0 | 8.0 | 0.00 | 0.00 | 0.00 | 83 | 1013.2 |
| 20260506115837 | 62 | 1 | 2.0 | 8.0 | 0.00 | 0.00 | 0.00 | 84 | 1013.5 |
| 20260506115336 | 61 | 220 | 2.0 | 13.0 | 0.00 | 0.00 | 0.00 | 85 | 1013.5 |
| 20260506114833 | 60 | 28 | 0.0 | 1.0 | 0.00 | 0.00 | 0.00 | 86 | 1013.4 |
| 20260506114331 | 60 | 319 | 2.0 | 6.0 | 0.00 | 0.00 | 0.00 | 86 | 1013.6 |
| 20260506113829 | 60 | 245 | 5.0 | 6.0 | 0.00 | 0.00 | 0.00 | 86 | 1013.8 |
| 20260506113326 | 60 | 169 | 2.0 | 9.0 | 0.00 | 0.00 | 0.00 | 86 | 1013.7 |
| 20260506112823 | 60 | 175 | 3.0 | 8.0 | 0.00 | 0.00 | 0.00 | 86 | 1014.0 |
| 20260506112320 | 60 | 304 | 3.0 | 6.0 | 0.00 | 0.00 | 0.00 | 86 | 1013.7 |
| 20260506111818 | 60 | 179 | 6.0 | 8.0 | 0.00 | 0.00 | 0.00 | 86 | 1013.7 |
| 20260506111316 | 60 | 254 | 5.0 | 8.0 | 0.00 | 0.00 | 0.00 | 86 | 1013.5 |
| 20260506110813 | 60 | 72 | 1.0 | 7.0 | 0.00 | 0.00 | 0.00 | 86 | 1013.7 |
| 20260506110310 | 60 | 204 | 3.0 | 6.0 | 0.00 | 0.00 | 0.00 | 87 | 1013.5 |
| 20260506105806 | 60 | 139 | 5.0 | 7.0 | 0.00 | 0.00 | 0.00 | 87 | 1013.6 |
| 20260506105305 | 59 | 249 | 7.0 | 8.0 | 0.00 | 0.00 | 0.00 | 87 | 1013.5 |
| 20260506104801 | 59 | 340 | 2.0 | 3.0 | 0.00 | 0.00 | 0.00 | 88 | 1013.7 |
| 20260506104258 | 59 | 287 | 4.0 | 5.0 | 0.00 | 0.00 | 0.00 | 87 | 1013.4 |
| 20260506103755 | 59 | 92 | 1.0 | 3.0 | 0.00 | 0.00 | 0.00 | 87 | 1013.7 |